Weather History for Laurens, SC

Change the Weather History Date:

Friday, April 5, 2013

  Actual Average (KGSP) Record (KGSP)
Temperature  
Mean Temperature 48 °F 58 °F  
Max Temperature 62 °F 70 °F 90 °F (1934)
Min Temperature 35 °F 46 °F 25 °F (1904)
Degree Days  
Heating Degree Days 16 8  
Month to date heating degree days 41  
Since 1 July heating degree days 2874  
Cooling Degree Days 0 1  
Month to date cooling degree days 5  
Year to date cooling degree days 13  
Moisture  
Dew Point 40 °F    
Average Humidity 77    
Maximum Humidity 100    
Minimum Humidity 45    
Precipitation  
Precipitation 0.00 in 0.12 in 2.52 in (1897)
Month to date precipitation 0.59  
Year to date precipitation 12.90  
Snow  
Snow 0.00 in 0.00 in T in (2011)
Month to date snowfall 0.0  
Since 1 July snowfall 4.7  
Snow Depth -    
Sea Level Pressure  
Sea Level Pressure 29.99 in    
Wind  
Wind Speed 5 mph (North)    
Max Wind Speed 10 mph    
Max Gust Speed 20 mph    
Visibility 9 miles    
Events      
T = Trace of Precipitation, MM = Missing Value Source: NWS Daily Summary

Daily Weather History Graph

Daily Weather History Graph

Search for Another Location

Airport:

Trip Planner

Search our weather history database for the weather conditions in past years. The results will help you decide how hot, cold, wet, or windy it might be!

Date:

Astronomy

Apr. 05, 2013 Rise Set
Actual Time 7:09 AM EDT 7:52 PM EDT
Civil Twilight 6:43 AM EDT 8:17 PM EDT
Nautical Twilight 6:13 AM EDT 8:47 PM EDT
Astronomical Twilight 5:42 AM EDT 9:18 PM EDT
Moon 4:03 AM EDT (4/5) 3:25 PM EDT (4/5)
Length of Visible Light 13h 33m
Length of Day
12h 43m
Waning Crescent, 24% of the Moon is Illuminated
Apr 5
Waning Crescent
Apr 10
New
Apr 18
First Quarter
Apr 25
Full
May 2
Last Quarter

Hourly Weather History & Observations

Time (EDT) Temp. Windchill Dew Point Humidity Pressure Visibility Wind Dir Wind Speed Gust Speed Precip Events Conditions
12:15 AM 35.6 °F 28.6 °F 35.6 °F 100% 29.99 in 7.0 mi NNE 9.2 mph - N/A   Overcast
12:35 AM 35.6 °F 29.9 °F 35.6 °F 100% 29.99 in 7.0 mi NNE 6.9 mph - N/A   Overcast
12:55 AM 37.4 °F 32.8 °F 37.4 °F 100% 30.00 in 10.0 mi North 5.8 mph - N/A   Overcast
1:15 AM 37.4 °F 32.8 °F 37.4 °F 100% 29.99 in 10.0 mi North 5.8 mph - N/A   Overcast
1:35 AM 37.4 °F 34.9 °F 37.4 °F 100% 30.00 in 10.0 mi NNE 3.5 mph - N/A   Overcast
1:55 AM 37.4 °F 34.9 °F 37.4 °F 100% 30.00 in 10.0 mi NNE 3.5 mph - N/A   Overcast
2:15 AM 37.4 °F - 37.4 °F 100% 29.99 in 10.0 mi Calm Calm - N/A   Overcast
2:35 AM 37.4 °F - 37.4 °F 100% 29.98 in 10.0 mi Calm Calm - N/A   Overcast
2:55 AM 37.4 °F 33.8 °F 37.4 °F 100% 29.97 in 10.0 mi North 4.6 mph - N/A   Overcast
3:15 AM 37.4 °F 31.4 °F 37.4 °F 100% 29.94 in 10.0 mi NNE 8.1 mph - N/A   Scattered Clouds
3:55 AM 37.4 °F 34.9 °F 37.4 °F 100% 29.94 in 10.0 mi North 3.5 mph - N/A   Mostly Cloudy
4:15 AM 35.6 °F 32.8 °F 35.6 °F 100% 29.93 in 10.0 mi North 3.5 mph - N/A   Scattered Clouds
4:35 AM 35.6 °F 31.7 °F 35.6 °F 100% 29.91 in 7.0 mi North 4.6 mph - N/A   Clear
4:55 AM 35.6 °F - 35.6 °F 100% 29.93 in 10.0 mi Calm Calm - N/A   Clear
5:15 AM 35.6 °F - 35.6 °F 100% 29.95 in 10.0 mi Calm Calm - N/A   Clear
5:35 AM 35.6 °F 32.8 °F 35.6 °F 100% 29.97 in 4.0 mi South 3.5 mph - N/A   Scattered Clouds
5:55 AM 35.6 °F - 35.6 °F 100% 29.96 in 7.0 mi Calm Calm - N/A   Overcast
6:15 AM 35.6 °F - 35.6 °F 100% 29.96 in 7.0 mi Calm Calm - N/A   Overcast
6:35 AM 35.6 °F 32.8 °F 35.6 °F 100% 29.98 in 5.0 mi South 3.5 mph - N/A   Overcast
6:55 AM 35.6 °F - 35.6 °F 100% 29.98 in 7.0 mi Calm Calm - N/A   Overcast
7:15 AM 35.6 °F - 35.6 °F 100% 29.97 in 3.0 mi Calm Calm - N/A   Scattered Clouds
7:35 AM 35.6 °F 32.8 °F 35.6 °F 100% 29.97 in 1.8 mi NNW 3.5 mph - N/A   Scattered Clouds
7:55 AM 35.6 °F 31.7 °F 35.6 °F 100% 29.98 in 3.0 mi NNW 4.6 mph - N/A   Scattered Clouds
8:15 AM 37.4 °F - 37.4 °F 100% 29.99 in 10.0 mi Calm Calm - N/A   Mostly Cloudy
8:35 AM 39.2 °F 35.9 °F 39.2 °F 100% 29.98 in 10.0 mi North 4.6 mph - N/A   Scattered Clouds
8:55 AM 41.0 °F 37.1 °F 41.0 °F 100% 29.99 in 10.0 mi North 5.8 mph - N/A   Clear
9:15 AM 42.8 °F 38.6 °F 42.8 °F 100% 29.98 in 10.0 mi North 6.9 mph - N/A   Clear
9:35 AM 44.6 °F 41.4 °F 44.6 °F 100% 29.99 in 10.0 mi North 5.8 mph - N/A   Clear
9:55 AM 46.4 °F 42.9 °F 44.6 °F 93% 30.00 in 10.0 mi North 6.9 mph - N/A   Clear
10:15 AM 46.4 °F 44.3 °F 44.6 °F 93% 30.01 in 10.0 mi NNE 4.6 mph - N/A   Scattered Clouds
10:35 AM 50.0 °F - 44.6 °F 82% 30.01 in 10.0 mi NNE 9.2 mph - N/A   Mostly Cloudy
10:55 AM 50.0 °F - 42.8 °F 76% 30.00 in 10.0 mi North 6.9 mph - N/A   Scattered Clouds
11:15 AM 51.8 °F - 42.8 °F 71% 30.00 in 10.0 mi NE 9.2 mph - N/A   Scattered Clouds
11:35 AM 53.6 °F - 44.6 °F 72% 30.00 in 10.0 mi NNE 8.1 mph 19.6 mph N/A   Mostly Cloudy
11:55 AM 51.8 °F - 42.8 °F 71% 30.01 in 10.0 mi North 10.4 mph - N/A   Mostly Cloudy
12:15 PM 53.6 °F - 42.8 °F 67% 30.01 in 10.0 mi NE 5.8 mph - N/A   Overcast
12:35 PM 55.4 °F - 42.8 °F 63% 30.01 in 10.0 mi North 9.2 mph - N/A   Overcast
12:55 PM 55.4 °F - 42.8 °F 63% 30.00 in 10.0 mi NE 10.4 mph - N/A   Overcast
1:15 PM 55.4 °F - 42.8 °F 63% 29.99 in 10.0 mi NNE 4.6 mph - N/A   Overcast
1:35 PM 55.4 °F - 42.8 °F 63% 29.99 in 10.0 mi ENE 6.9 mph - N/A   Overcast
1:55 PM 59.0 °F - 44.6 °F 59% 29.98 in 10.0 mi East 9.2 mph - N/A   Overcast
2:15 PM 59.0 °F - 44.6 °F 59% 29.98 in 10.0 mi ENE 8.1 mph - N/A   Scattered Clouds
2:35 PM 59.0 °F - 42.8 °F 55% 29.98 in 10.0 mi East 6.9 mph - N/A   Mostly Cloudy
2:55 PM 59.0 °F - 42.8 °F 55% 29.98 in 10.0 mi ENE 5.8 mph - N/A   Mostly Cloudy
3:15 PM 59.0 °F - 42.8 °F 55% 29.97 in 10.0 mi NNW 4.6 mph - N/A   Overcast
3:35 PM 60.8 °F - 44.6 °F 55% 29.96 in 10.0 mi North 4.6 mph - N/A   Mostly Cloudy
3:55 PM 60.8 °F - 42.8 °F 52% 29.96 in 10.0 mi Calm Calm - N/A   Mostly Cloudy
4:15 PM 60.8 °F - 42.8 °F 52% 29.95 in 10.0 mi Calm Calm - N/A   Mostly Cloudy
4:35 PM 60.8 °F - 42.8 °F 52% 29.95 in 10.0 mi WNW 3.5 mph - N/A   Mostly Cloudy
4:55 PM 62.6 °F - 42.8 °F 48% 29.95 in 10.0 mi Calm Calm - N/A   Scattered Clouds
5:15 PM 62.6 °F - 42.8 °F 48% 29.95 in 10.0 mi WNW 9.2 mph - N/A   Scattered Clouds
5:55 PM 62.6 °F - 41.0 °F 45% 29.96 in 10.0 mi North 4.6 mph - N/A   Clear
6:15 PM 62.6 °F - 41.0 °F 45% 29.96 in 10.0 mi Calm Calm - N/A   Clear
6:35 PM 62.6 °F - 41.0 °F 45% 29.96 in 10.0 mi North 3.5 mph - N/A   Clear
6:55 PM 62.6 °F - 41.0 °F 45% 29.97 in 10.0 mi NNW 4.6 mph - N/A   Clear
7:15 PM 62.6 °F - 41.0 °F 45% 29.97 in 10.0 mi Calm Calm - N/A   Clear
7:35 PM 60.8 °F - 42.8 °F 52% 29.97 in 10.0 mi Calm Calm - N/A   Clear
7:55 PM 57.2 °F - 44.6 °F 63% 29.98 in 10.0 mi Calm Calm - N/A   Clear
8:15 PM 55.4 °F - 44.6 °F 67% 29.99 in 10.0 mi Calm Calm - N/A   Clear
8:35 PM 53.6 °F - 44.6 °F 72% 30.00 in 10.0 mi Calm Calm - N/A   Clear
8:55 PM 51.8 °F - 44.6 °F 76% 30.01 in 10.0 mi West 3.5 mph - N/A   Clear
9:15 PM 51.8 °F - 42.8 °F 71% 30.03 in 10.0 mi NW 6.9 mph - N/A   Clear
9:35 PM 53.6 °F - 39.2 °F 58% 30.04 in 10.0 mi NNW 3.5 mph - N/A   Clear
9:55 PM 53.6 °F - 39.2 °F 58% 30.05 in 10.0 mi North 4.6 mph - N/A   Clear
10:15 PM 51.8 °F - 39.2 °F 62% 30.05 in 10.0 mi North 3.5 mph - N/A   Clear
10:35 PM 48.2 °F - 39.2 °F 71% 30.06 in 10.0 mi North 4.6 mph - N/A   Clear
10:55 PM 48.2 °F - 39.2 °F 71% 30.06 in 10.0 mi North 4.6 mph - N/A   Clear
11:15 PM 50.0 °F - 37.4 °F 62% 30.06 in 10.0 mi North 3.5 mph - N/A   Clear
11:35 PM 48.2 °F - 37.4 °F 66% 30.06 in 10.0 mi NNW 3.5 mph - N/A   Clear
11:55 PM 46.4 °F 45.2 °F 39.2 °F 76% 30.06 in 10.0 mi NW 3.5 mph - N/A   Clear